sat.trackr.live / text

‹ back to catalog

2025-197B

NORAD 65489 · 2025-197B

PAYLOAD ACTIVE UNKNOWN

§ Identity

Operator
Country
PRC
Launch date
2025-09-05
Launch site
JSC
Launch vehicle
Mass (kg)
RCS (m²)

External: N2YO · Heavens-Above · Gunter

§ Orbital elements

Epoch: 2026-09-20T22:33:38.619648Z

Period
94.73 min
Inclination
97.4114°
Eccentricity
0.0014492
Mean motion
15.20077332 rev/d
Perigee alt
495.6 km
Apogee alt
515.6 km
Semi-major
6,883.7 km
B*
1.1303e-4
RAAN
88.5050°
Arg perigee
37.4080°
Mean anomaly
322.8161°
Rev number
5,782

§ Raw data

2025-197B1 65489U 25197B   26263.94003032  .00002377  00000+0  11303-3 0  99952 65489  97.4114  88.5050 0014492  37.4080 322.8161 15.20077332 57823

JSON: /api/v1/satellites/65489 · /tle

For live sub-satellite position, see the globe view (requires WebGL).

§ Visibility from observer

Set your observer location to see the next 7 days of passes ≥ 10°. The values pass through the URL so the page stays shareable.

No JS? Fill the form by hand. The geolocation button needs JavaScript.

§ Radio — SatNOGS DB

ModeDescriptionDownlinkUplink
FM Telemetry 401.100 MHz

1 transmitter · refreshed weekly from db.satnogs.org